Location: Edemissen
(51.7689°N, 9.8634°E)
Time: 23:06:29
(UTC+00:00)

ALSAT 2A - Visible Passes

Search period start: 18 November 2025 00:00
Search period end: 28 November 2025 00:00
Orbit: 647 x 649 km, 97.8° (Epoch: 18 November)

Date Brightness Start Highest point End Pass type
(mag) Time Alt. Az. Time Alt. Az. Time Alt. Az.
18 Nov ? 05:33:22 10° NNE 05:37:47 52° E 05:42:09 10° S visible
18 Nov ? 16:36:55 10° SSE 16:41:23 84° ENE 16:45:54 10° NNW visible
18 Nov ? 18:16:22 10° WSW 18:18:42 14° W 18:21:03 10° NW visible
19 Nov ? 04:24:25 10° ENE 04:26:24 13° E 04:28:23 10° ESE visible
19 Nov ? 05:59:16 10° NNE 06:03:47 89° ESE 06:08:16 10° SSW visible
19 Nov ? 17:02:58 10° S 17:07:22 57° W 17:11:49 10° NNW visible
20 Nov ? 04:49:13 10° NE 04:52:41 21° E 04:56:06 10° SE visible
20 Nov ? 17:29:23 10° SSW 17:33:27 33° W 17:37:32 10° NNW visible
21 Nov ? 05:14:42 10° NNE 05:18:50 35° E 05:22:57 10° SSE visible
21 Nov ? 16:18:11 10° SSE 16:22:34 57° ENE 16:26:59 10° N visible
21 Nov ? 17:56:18 10° SW 17:59:38 20° W 18:02:58 10° NW visible
22 Nov ? 05:40:26 10° NNE 05:44:54 61° E 05:49:20 10° S visible
22 Nov ? 16:44:00 10° SSE 16:48:29 84° WSW 16:53:00 10° NNW visible
22 Nov ? 18:24:13 10° WSW 18:25:54 12° W 18:27:36 10° WNW visible
23 Nov ? 04:31:02 10° NE 04:33:36 15° E 04:36:09 10° ESE visible
23 Nov ? 06:06:22 10° NNE 06:10:52 79° WNW 06:15:20 10° SSW visible
23 Nov ? 17:10:09 10° S 17:14:29 49° W 17:18:51 10° NNW visible
24 Nov ? 04:56:07 10° NE 04:59:50 25° E 05:03:30 10° SSE visible
24 Nov ? 15:59:36 10° SE 16:03:46 40° ENE 16:07:59 10° N visible
24 Nov ? 17:36:42 10° SSW 17:40:35 29° W 17:44:30 10° NNW visible
25 Nov ? 05:21:41 10° NNE 05:25:57 41° E 05:30:11 10° SSE visible
25 Nov ? 16:25:10 10° SSE 16:29:37 67° ENE 16:34:05 10° N visible
25 Nov ? 18:03:47 10° SW 18:06:46 17° W 18:09:47 10° NW visible
26 Nov ? 05:47:28 10° NNE 05:51:59 72° ESE 05:56:27 10° S visible
26 Nov ? 16:51:04 10° S 16:55:32 72° WSW 17:00:03 10° NNW visible
27 Nov ? 04:37:45 10° NE 04:40:44 17° E 04:43:42 10° SE visible
27 Nov ? 06:13:26 10° N 06:17:54 68° WNW 06:22:21 10° SSW visible
27 Nov ? 17:17:19 10° S 17:21:33 41° W 17:25:50 10° NNW visible
